(161) Athor
ephemeris date magn radius delta ra dec elong phase
Today1 Jul 202514.62.656 AU3.659 AU07h01m+29°16'7.8°3.0°
Opposition23 Feb 202612.92.680 AU1.700 AU10h42m+18°54'170.1°3.7°
(161) Athor - 2025-07-01
astro.vanbuitenen.nl


 
-1 year
-1 month
-1 day
Now
+1 day
+1 month
+1 year

The interactive orbit chart above shows the body's path through the solar system and its position at the given date. Green and blue lines are shown perpendicular to the ecliptic plane: Green if the path is above the ecliptic plane, blue if it is below. (Left-click and drag to rotate the view; Right-click and drag to move the view; Use scroll wheel to zoom in our out.)

The orbital elements of Athor are:

            e (Eccentricity)                : 0.1370711
            a (Semimajor axis)              : 2.3809326
            i (Inclination)                 : 9.05079
            Ω (Longitude of ascending node) : 18.50029
            ω (Argument of perihelion)      : 295.29302
            M (Mean anomaly)                : 127.75939
            Epoch                           : 2025 May 05

            L (Longitude of perihelion)     : -45.92829
            B (Latitude of perihelion)      : -8.17687
            P (Orbital period in years)     : 3.67            
        

The light curve chart below shows the estimated development of the minor planet's magnitude.


The all-sky chart below shows the path of the minor planet over the same period as the light curve. The current position is marked yellow.





The following chart shows the path of the minor planet in the next few days. The field of view is optimized for (~10x50) binoculars and finderscopes. A more printer-friendly version of the same chart can be found below.




Ephemerides:
Date       Time       RA (2000)    DEC (2000)    delta   radius  elong  phase   PA    magn
2025-07-01 00:00 UT   07 01 12.4   +29 16 25     3.659    2.656    7.8    3.0    40   14.6 
2025-07-01 00:51 UT   07 01 16.5   +29 16 19     3.659    2.656    7.8    3.0    39   14.6 
2025-07-02 00:00 UT   07 03 07.2   +29 13 44     3.661    2.656    7.6    2.9    36   14.5 
2025-07-03 00:00 UT   07 05 01.8   +29 10 58     3.662    2.657    7.3    2.8    33   14.5 
2025-07-04 00:00 UT   07 06 56.2   +29 08 08     3.664    2.658    7.1    2.7    29   14.5 
2025-07-05 00:00 UT   07 08 50.6   +29 05 14     3.665    2.658    6.9    2.6    25   14.5 
2025-07-06 00:00 UT   07 10 44.8   +29 02 16     3.666    2.659    6.8    2.6    21   14.5 
2025-07-07 00:00 UT   07 12 38.9   +28 59 13     3.667    2.660    6.6    2.5    17   14.5 
2025-07-08 00:00 UT   07 14 32.9   +28 56 06     3.668    2.661    6.6    2.5    13   14.5 
2025-07-09 00:00 UT   07 16 26.7   +28 52 55     3.669    2.661    6.6    2.5     8   14.5 
2025-07-10 00:00 UT   07 18 20.3   +28 49 40     3.669    2.662    6.6    2.5     4   14.5 
2025-07-11 00:00 UT   07 20 13.9   +28 46 21     3.670    2.663    6.6    2.5   359   14.5 
2025-07-12 00:00 UT   07 22 07.2   +28 42 57     3.670    2.663    6.7    2.6   355   14.5 
2025-07-13 00:00 UT   07 24 00.5   +28 39 30     3.670    2.664    6.9    2.6   351   14.5 
2025-07-14 00:00 UT   07 25 53.5   +28 35 58     3.671    2.665    7.1    2.7   347   14.5 
2025-07-15 00:00 UT   07 27 46.4   +28 32 22     3.671    2.665    7.3    2.8   343   14.6 
2025-07-16 00:00 UT   07 29 39.2   +28 28 43     3.670    2.666    7.5    2.9   340   14.6 
2025-07-17 00:00 UT   07 31 31.7   +28 24 59     3.670    2.667    7.8    3.0   336   14.6 
2025-07-18 00:00 UT   07 33 24.1   +28 21 11     3.670    2.667    8.1    3.1   333   14.6 
2025-07-19 00:00 UT   07 35 16.4   +28 17 20     3.669    2.668    8.4    3.2   330   14.6 
2025-07-20 00:00 UT   07 37 08.5   +28 13 24     3.668    2.669    8.8    3.3   328   14.6 
2025-07-21 00:00 UT   07 39 00.3   +28 09 25     3.668    2.669    9.1    3.5   326   14.6 


    Terminology:
            
    delta:  distance between minor planet and earth in AU
    radius: distance between minor planet and sun in AU
    magn:   magnitude (brightness) estimate    
    ra:     right ascension in hours (24h = 360deg)
    dec:    declination in degrees
    elong:  elongation in degrees (angle sun-earth-minor planet)    
    phase:  phase angle in degrees (angle sun-minor planet-earth)        
    AU:     Astronomical Unit (mean distance between earth and sun: 149597870.7 km
    

Orbital elements provided by the MPC (Minor Planet Center).
Calculations by a modified version of AAPlus, a C# implementation of the AA+ project by PJ Naughter from the algorithms presented in the book "Astronomical Algorithms" by Jean Meeus.
NGC2000 dso catalog and star labels from VizieR as provided by the Strasbourg astronomical Data Center.
Tycho2 catalog from the ESO archive.